This is the latest recevied weather packets stored in our database for station/object AA8FM-13. If no packets are shown the sender has not sent any weather packets the latest 10 day(s).
| Time | Temp. | Humidity | Pressure | Rain* | Wind** | Luminosity | Snow |
|---|---|---|---|---|---|---|---|
| 1777511987 | 13.89° C | 94% | 1007.3 hPa | 0 mm | - | 0 W/m² | - |
| 1777511685 | 13.89° C | 95% | 1007.1 hPa | 0 mm | - | 0 W/m² | - |
| 1777511383 | 13.89° C | 95% | 1007.2 hPa | 0 mm | - | 0 W/m² | - |
| 1777511078 | 13.89° C | 95% | 1007.1 hPa | 0 mm | - | 0 W/m² | - |
| 1777510774 | 13.89° C | 96% | 1006.7 hPa | 0 mm | - | 0 W/m² | - |
| 1777510472 | 14.44° C | 98% | 1006.9 hPa | 0 mm | - | 0 W/m² | - |
| 1777510167 | 14.44° C | 99% | 1006.6 hPa | 0 mm | - | 0 W/m² | - |
| 1777509864 | 14.44° C | 99% | 1006.8 hPa | 1.27 mm | - | 0 W/m² | - |
| 1777509559 | 14.44° C | 99% | 1006.4 hPa | 1.27 mm | - | 0 W/m² | - |
| 1777509256 | 14.44° C | 99% | 1006.2 hPa | 0 mm | - | 0 W/m² | - |
| 1777508953 | 14.44° C | 99% | 1006.4 hPa | 0 mm | - | 0 W/m² | - |
| 1777508650 | 14.44° C | 99% | 1006.3 hPa | 0 mm | - | 0 W/m² | - |
| 1777508348 | 14.44° C | 99% | 1006.2 hPa | 0 mm | - | 1 W/m² | - |
| 1777508045 | 14.44° C | 99% | 1006 hPa | 0 mm | - | 1 W/m² | - |
| 1777507741 | 15° C | 99% | 1006.2 hPa | 0 mm | - | 3 W/m² | - |
| 1777507438 | 15° C | 98% | 1006 hPa | 0 mm | - | 5 W/m² | - |
| 1777507135 | 15° C | 98% | 1006 hPa | 0 mm | - | 8 W/m² | - |
| 1777506833 | 15° C | 98% | 1006 hPa | 0 mm | - | 16 W/m² | - |
| 1777506530 | 15° C | 97% | 1005.7 hPa | 1.78 mm | - | 10 W/m² | - |
| 1777506225 | 15° C | 97% | 1005.8 hPa | 1.78 mm | - | 7 W/m² | - |
| 1777505922 | 15° C | 96% | 1005.7 hPa | 0 mm | - | 6 W/m² | - |
| 1777505617 | 15.56° C | 96% | 1005.3 hPa | 0 mm | - | 7 W/m² | - |
| 1777505314 | 15.56° C | 96% | 1005.4 hPa | 0 mm | - | 8 W/m² | - |
| 1777505011 | 15.56° C | 97% | 1005.2 hPa | 0 mm | - | 9 W/m² | - |
| 1777504702 | 15.56° C | 96% | 1005.3 hPa | 0 mm | - | 19 W/m² | - |
* Rain latest hour (hover to see other rain measurements)
** Current wind speed in m/s (hover to see current wind gust speed)